Regional Weather Roundup
Issued by NWS

Home | Current Version | Previous Version | Text Only | Print | Product List | Glossary Off
Versions: 1 2 3 4 5 6 7 8 9 10 11 12 13 14 15 16 17 18 19 20 21 22 23 24 25 26 27 28 29 30 31 32 33 34 35 36 37 38 39 40 41 42 43 44 45 46 47 48 49 50

000
ASUS43 KMKX 230511
RWRWI

WISCONSIN REGIONAL WEATHER ROUNDUP
NATIONAL WEATHER SERVICE MILWAUKEE/SULLIVAN WI
1200 AM CDT MON OCT 23 2017

NOTE: "FAIR" INDICATES FEW OR NO CLOUDS BELOW 12,000 FEET WITH NO
SIGNIFICANT WEATHER AND/OR OBSTRUCTIONS TO VISIBILITY.

WIZ001-002-006>008-014>016-023>028-230600-
NORTHWEST WISCONSIN

CITY           SKY/WX    TMP DP  RH WIND       PRES   REMARKS
SUPERIOR ARPT  CLOUDY    53  34  49 S12       29.83F
ASHLAND        CLOUDY    49  36  61 S6        29.88F
HAYWARD        CLOUDY    50  35  56 S9        29.89F
SIREN          CLOUDY    55  31  40 S7        29.87F
CUMBERLAND     CLOUDY    45  36  70 S6        29.90F
RICE LAKE      CLOUDY    46  39  76 SE7       29.93F
CHETEK         CLOUDY    46  41  83 E10       29.92F
LADYSMITH      PTCLDY    45  41  86 S7        29.95F
EAU CLAIRE     PTCLDY    47  41  80 S12       29.93F
MENOMONIE      MOCLDY    45  41  88 NE3       29.93F
NEW RICHMOND   NOT AVBL
OSCEOLA        CLOUDY    53  34  48 S8G16     29.91S
$$

WIZ003>005-009-010-017-018-230600-
NORTH CENTRAL WISCONSIN

CITY           SKY/WX    TMP DP  RH WIND       PRES   REMARKS
MANITOWISH WTR CLEAR     39  39 100 S5        29.94S
ARBOR VITAE    CLEAR     42  40  93 S7        29.95S
WOODRUFF       CLEAR     42  40  93 S7        29.95S
RHINELANDER    CLEAR     42  41  96 SW7       29.97F
EAGLE RIVER    NOT AVBL
LAND O LAKES   CLEAR     38  38 100 CALM      29.97S
PHILLIPS       PTCLDY    41  40  97 S6        29.94F
TOMAHAWK         N/A     37  36  96 CALM      29.97F FOG
MEDFORD        CLEAR     38  37  98 S7        29.97F WCI  32
MERRILL        FOG       32  32 100 CALM      29.99S VSB 1/2
$$

WIZ029-030-035-036-043>047-230600-
CENTRAL WISCONSIN

CITY           SKY/WX    TMP DP  RH WIND       PRES   REMARKS
WAUSAU         CLEAR     42  42 100 SW3       29.98F
MOSINEE        PTCLDY    41  41 100 SW6       30.00S FOG
MARSHFIELD     FOG       41  39  93 S3        29.98F VSB 3/4
STEVENS POINT  FOG       41  41 100 CALM      30.01S VSB 1/4
WAUPACA        FOG       46  45  97 CALM      30.01F VSB 1/4
WAUTOMA        FOG      N/A N/A N/A CALM      30.02F VSB 1/4
WISC RAPIDS    FOG       42  42 100 SW5       30.01F VSB 1
CAMP DOUGLAS   NOT AVBL
$$

WIZ011>013-019>022-031-037>040-048>050-230600-
NORTHEAST WISCONSIN

CITY           SKY/WX    TMP DP  RH WIND       PRES   REMARKS
ANTIGO         FOG       37  37 100 CALM      29.99F VSB<1/4
SHAWANO        FOG       47  45  94 CALM      30.00F VSB 1/4
OCONTO         MOCLDY    42  42 100 CALM      30.00F VSB 1/2
STURGEON BAY   CLOUDY    48  46  93 SW3       30.01S
GREEN BAY      MOCLDY    47  47 100 CALM      30.00F
MANITOWOC      CLOUDY    49  48  97 CALM      30.02F
APPLETON       FOG       45  45 100 W3        29.99F VSB<1/4
CLINTONVILLE   FOG       43  41  93 CALM      30.00F VSB 1/4
OSHKOSH        PTCLDY    46  45  96 S3        30.01F
$$

WIZ032>034-041-042-053>061-230600-
SOUTHWEST WISCONSIN

CITY           SKY/WX    TMP DP  RH WIND       PRES   REMARKS
LA CROSSE      CLEAR     49  45  86 S8        29.99F
SPARTA         CLEAR     33  33  99 CALM      30.01F
VIROQUA        CLEAR     44  43  95 S5        30.01S
BOSCOBEL       FOG       43  42  97 CALM      30.03S VSB 1/4
PRAIRIE DU CHI CLOUDY    43  41  94 CALM      30.02F
PLATTEVILLE    CLOUDY    45  45 100 S5        30.02F
$$

WIZ056-057-062-063-064-067-068-230600-
SOUTH CENTRAL WISCONSIN

CITY           SKY/WX    TMP DP  RH WIND       PRES   REMARKS
REEDSBURG      CLOUDY    42  42 100 CALM      30.01F
BARABOO/DELLS  FOG       43  42  97 CALM      30.01F VSB 1/4
LONE ROCK      FOG       42  42 100 CALM      30.02F VSB 1/4
MINERAL POINT  CLOUDY    46  46 100 CALM      30.01F
MADISON        CLOUDY    46  45  96 CALM      30.02F
MIDDLETON      CLOUDY    48  48 100 CALM      30.02F
WATERTOWN      CLOUDY    48  48 100 CALM      30.02F
MONROE         CLOUDY    48  46  93 W5        30.02F
JANESVILLE     CLOUDY    48  48 100 CALM      30.01F
$$

WIZ051-052-058>065-066-070>072-230600-
SOUTHEAST WISCONSIN

CITY           SKY/WX    TMP DP  RH WIND       PRES   REMARKS
MILWAUKEE      RAIN      52  51  97 NW3       30.01F
WAUKESHA       LGT RAIN  46  46 100 CALM      30.02F
MILWAUKEE/TIMM RAIN      48  45  87 CALM      30.02F
RACINE         LGT RAIN  51  50  96 NW6       30.02F
BURLINGTON     DRIZZLE   49  49 100 CALM      30.01F
KENOSHA        LGT RAIN  51  49  92 N6        30.01F
FOND DU LAC    CLOUDY    48  46  93 S3        30.02F
SHEBOYGAN      CLOUDY    50  50 100 CALM      30.02F
WEST BEND      MOCLDY    46  46 100 CALM      30.01F
JUNEAU         CLOUDY    47  46  99 CALM      30.03F FOG
$$

LSZ147-162-230600-
LAKE SUPERIOR

STATION/POSITION TIME  TEMP    WIND        PRES    WAVE
                       AIR SEA DIR/SP/G            HT/PER
                 (UTC) (F)     (DEG/KT/KT) (MB)    (FT/S)
W MID LAKE BUOY  0350   53 52              1011.6F   3/ 4
DEVILS ISLAND    0500   54     180/ 11/ 15 1011.3F
SAXON HARBOR     0430   51     190/  8/ 13 1011.9F
$$

LMZ867-665-643>646-230600-
LAKE MICHIGAN

STATION/POSITION TIME  TEMP    WIND        PRES    WAVE
                       AIR SEA DIR/SP/G            HT/PER
                 (UTC) (F)     (DEG/KT/KT) (MB)    (FT/S)
S GREEN BAY BUOY 0500   53 58  250/ 12/ 16 1015.6
N MID LAKE BUOY  0450   53 57  250/ 10/ 12 1016.0F   2/ 6
NORTHPORT PIER   0440   48     230/  1/  2 1015.6S
KEWAUNEE LAKESHO 0442   49     260/  3/  4 1015.4F
SHEBOYGAN LAKESH 0500   51     210/  1/  2 1016.4F
PORT WASHINGTON  0440   51     310/  3/  4 1017.3F
MILWAUKEE LAKESH 0450   51     320/  4/  5   N/A
S MID LAKE BUOY  0450   55 60  360/ 12/ 14 1015.8F   3/ 6
KENOSHA   LAKESH 0500   51     340/  7/  9 1015.9
$$

TC  - TEMPERATURE IN CELSIUS
VSB - VISIBILITY IN STATUTE MILES
WCI - WIND CHILL INDEX
HX  - HEAT INDEX





USA.gov is the U.S. government's official web portal to all federal, state and local government web resources and services.